Helicity
-21 -15 -1 1 -3 8 35 52 73 58 44 25 7 -7 -32 15 -15 -16 12 37 74 117 89 49 9 31 35 50 64 46 74 54 42 58 50 57 64 61 82 107 81 71 71 53 113
-22 -9 5 6 6 16 34 43 44 42 25 27 28 -11 -53 -14 4 -12 33 66 64 66 28 37 39 50 55 61 58 69 69 45 43 51 47 54 58 71 83 110 88 88 81 124 118
-12 -4 3 8 3 6 30 30 30 32 27 17 7 -1 -29 -36 18 -4 54 80 66 50 11 19 18 31 64 66 73 64 64 45 45 49 53 59 52 67 91 91 89 104 99 100 74
-7 -6 -5 4 13 18 19 28 35 34 38 31 3 -25 -33 -20 15 12 65 75 50 25 27 25 38 56 73 81 68 83 79 49 35 46 55 49 47 54 112 100 88 112 98 81 70
-5 -10 -4 6 12 20 41 61 54 43 32 29 7 -34 -22 6 3 3 47 31 -0 8 52 46 67 52 72 70 61 73 44 60 46 46 43 51 47 58 97 59 148 127 102 88 63
11 8 10 14 12 11 33 52 42 37 26 7 -1 -50 -43 31 28 25 17 -14 28 35 49 57 40 45 62 72 75 49 52 48 36 34 41 40 54 79 71 68 37 93 85 76 58
19 14 15 14 15 14 30 32 24 14 2 -6 -6 -13 -11 -11 16 4 -10 -13 10 23 20 26 -2 30 22 48 17 23 45 35 43 30 35 35 65 47 54 77 88 117 62 64 39
39 28 29 31 35 38 33 52 31 25 21 -35 -29 3 -18 25 27 8 -18 -35 -27 -9 2 -4 -0 10 25 7 33 36 52 44 31 50 45 18 28 16 77 108 82 101 69 62 27
54 47 42 42 45 45 12 33 34 43 46 -47 -0 4 -7 25 32 21 10 -25 -51 -9 2 -5 15 8 15 19 33 55 20 26 17 41 26 43 80 61 97 124 98 89 64 59 37
63 57 56 46 50 42 37 12 49 -3 -21 -0 5 -0 -5 -20 38 59 11 -2 -17 -15 7 25 31 23 42 37 5 15 15 34 23 32 38 53 130 140 109 144 122 25 48 63 83
65 64 62 48 55 48 6 2 9 -1 59 5 -16 -12 -6 61 43 30 48 -3 16 27 11 11 36 13 4 10 9 26 34 32 35 45 -33 42 105 129 79 59 64 -51 40 58 88
64 72 65 43 39 18 8 23 9 12 7 -15 -1 -0 22 27 -5 50 1 30 18 7 -11 36 1 3 11 26 16 21 15 -3 8 38 -7 37 104 97 59 62 43 -21 3 27 30
64 75 75 44 2 7 25 39 13 -22 -1 -9 4 5 3 8 10 8 9 12 34 27 30 48 9 12 30 55 29 34 14 3 29 42 19 83 60 104 43 52 12 42 49 40 26
59 62 64 35 16 5 7 -1 -15 -25 9 -12 -7 6 24 30 23 24 24 33 44 35 35 53 15 20 29 47 31 24 56 48 42 51 77 63 83 57 90 86 112 99 128 85 64
57 57 52 16 22 6 6 -14 -19 -14 17 -19 -10 43 7 28 31 18 24 40 56 55 39 27 13 16 26 -0 28 19 62 45 72 98 101 86 111 9 102 151 149 158 138 113 120
51 64 16 -1 -7 -1 -2 -1 4 10 1 -0 15 8 32 28 34 46 50 50 64 87 62 47 33 55 11 22 36 27 44 79 97 105 126 87 76 33 120 129 240 281 270 259 139
40 43 -27 -13 1 -2 10 15 17 41 15 7 22 31 35 31 44 59 52 79 111 82 51 49 43 69 88 25 44 43 56 26 93 123 115 118 122 72 135 215 340 421 349 183 66
16 11 -16 -15 -1 7 15 34 53 28 29 42 40 40 63 57 69 57 77 108 126 67 72 38 -15 81 64 77 37 55 39 71 80 131 180 202 87 96 264 485 468 397 210 105 89
7 12 3 6 8 18 41 63 33 39 51 45 44 76 65 73 71 94 105 134 107 98 36 57 45 128 75 88 66 62 78 79 147 133 180 139 124 88 314 518 455 337 172 103 88
20 30 21 18 23 39 68 52 51 60 64 64 76 91 80 77 105 120 139 129 126 106 35 74 76 99 116 103 79 83 94 117 140 158 146 244 254 177 267 363 310 258 136 116 109
32 44 23 30 35 77 70 49 60 68 71 82 93 108 111 106 121 127 156 144 130 121 101 106 130 117 125 110 102 100 94 122 152 193 235 262 204 206 186 277 284 158 107 40 65
37 52 29 39 65 73 81 71 87 92 93 119 137 140 118 124 135 153 186 164 153 144 105 86 159 131 127 156 131 116 83 162 198 208 331 351 372 125 219 243 204 158 9 82 62
40 33 48 61 79 88 83 109 105 112 115 129 134 133 120 128 154 175 197 212 200 163 123 116 172 127 75 103 177 177 130 232 291 275 371 401 356 233 243 88 125 60 55 111 88
47 64 76 95 95 113 99 102 123 127 131 140 149 151 155 148 159 241 237 203 163 188 182 164 234 246 213 226 268 236 268 306 337 328 421 560 417 221 178 206 167 90 133 108 113
66 68 72 104 123 122 120 128 136 139 145 146 163 120 161 194 176 233 272 234 222 206 212 181 224 287 195 169 211 239 186 295 430 291 458 293 367 323 243 203 123 127 118 110 42
76 95 98 92 104 123 123 106 124 154 180 171 165 185 186 215 217 226 245 197 195 264 238 260 267 270 262 131 156 202 184 236 312 200 189 175 157 190 48 63 113 85 116 33 47
49 84 110 121 136 146 115 131 145 179 141 144 143 215 203 137 214 223 211 233 279 333 277 306 274 228 259 235 178 171 127 214 257 336 336 412 273 222 137 124 79 107 51 38 59
Wind_Speed
29 32 34 34 33 32 33 33 30 30 32 37 38 37 38 38 44 46 41 45 46 49 49 43 37 37 33 32 34 30 31 27 27 26 28 24 26 28 31 29 24 24 25 27 30
33 34 34 34 35 36 36 36 35 36 34 35 37 37 37 40 39 49 49 52 51 51 46 42 40 40 34 35 36 33 30 26 30 30 29 26 27 29 27 26 21 23 30 31 28
34 35 36 35 36 39 40 39 37 37 38 38 39 39 42 40 35 51 53 54 53 52 37 38 38 36 34 36 39 35 30 25 31 31 31 30 31 32 28 24 17 20 20 24 25
37 37 38 38 40 41 40 39 37 37 37 37 40 40 41 41 42 51 55 53 52 51 36 38 36 35 34 34 36 31 31 29 28 33 34 33 38 35 20 24 25 23 26 23 25
40 40 40 40 40 39 38 35 35 38 38 37 41 42 39 45 50 52 53 52 50 46 43 37 37 33 31 31 32 31 27 32 33 36 38 40 38 34 16 15 20 23 22 24 27
40 40 39 38 38 37 36 37 37 39 38 40 42 45 46 45 46 51 53 52 50 48 46 41 35 33 31 33 33 30 29 32 36 39 43 49 43 43 32 31 5 11 13 20 25
42 41 40 39 38 39 41 40 38 36 37 38 41 39 52 50 48 56 56 49 48 45 44 43 38 33 30 31 31 29 34 36 37 47 47 53 44 30 30 35 22 8 11 17 23
43 41 39 38 36 34 34 33 31 30 31 39 41 38 44 45 48 56 57 49 47 42 39 40 39 39 37 31 35 38 36 47 46 51 48 52 42 32 36 34 25 11 11 15 20
38 36 35 35 35 34 33 31 33 33 24 37 38 37 43 45 57 57 54 51 45 42 40 39 38 41 41 38 36 45 44 51 54 51 52 46 33 32 41 24 19 14 10 14 19
34 33 34 33 34 35 36 30 24 30 37 35 44 36 47 47 51 58 47 50 47 41 39 42 41 42 48 45 41 47 49 55 58 53 52 22 13 14 22 15 12 10 8 12 17
34 35 34 32 34 32 31 30 31 36 43 41 43 41 44 16 33 57 40 42 48 50 44 45 49 50 47 45 41 41 46 52 48 46 68 44 28 54 54 35 19 8 10 9 16
30 32 31 29 27 33 34 33 32 33 39 43 41 44 40 41 47 56 54 46 53 54 45 43 51 44 43 42 46 45 52 54 49 48 64 53 62 38 46 44 29 18 10 9 17
26 28 28 28 26 37 39 38 35 33 35 41 45 47 45 43 49 59 60 46 52 53 55 47 46 44 44 45 56 51 51 60 58 68 42 57 36 39 39 42 36 30 22 18 16
30 31 29 27 36 38 38 35 34 32 33 45 47 45 43 40 46 47 54 48 49 49 48 47 48 50 45 50 56 57 47 60 62 65 45 48 35 37 43 40 40 36 33 30 27
30 31 32 38 37 38 35 34 33 32 36 43 42 34 44 48 41 56 52 49 51 48 48 51 55 53 53 55 53 51 61 57 52 46 45 40 39 35 39 39 39 37 37 33 36
32 33 33 37 40 38 35 34 34 35 38 39 40 49 44 50 48 46 52 52 43 44 53 48 46 45 54 56 47 58 55 51 45 40 41 37 47 42 31 34 37 40 42 46 47
34 33 41 40 39 37 34 34 37 40 37 41 42 48 44 50 48 56 56 63 57 60 63 53 53 48 53 58 47 65 59 58 49 50 45 40 52 33 27 36 33 39 43 47 50
36 35 41 43 39 36 34 36 39 36 36 38 40 43 44 52 47 53 52 56 56 54 56 64 66 62 59 48 56 52 51 50 57 56 57 51 43 37 31 27 33 38 39 49 59
36 35 41 46 38 36 35 40 36 34 37 44 44 45 46 47 49 51 55 48 50 53 61 59 55 52 52 47 47 47 48 43 46 48 57 44 40 32 23 23 30 38 43 59 67
36 34 44 45 38 36 37 37 34 34 36 39 47 43 53 52 54 59 53 44 51 45 49 46 53 46 46 47 43 45 39 47 44 57 65 51 47 44 30 21 25 45 61 70 75
37 36 45 44 37 39 38 36 35 33 36 42 42 47 47 53 53 57 53 49 41 47 50 48 44 57 49 48 50 44 42 39 42 46 56 66 53 42 37 18 27 44 63 76 81
38 38 47 42 40 39 38 37 35 35 37 40 39 43 45 50 55 57 53 50 38 42 54 44 50 57 58 47 38 35 40 38 51 56 48 58 67 42 31 26 37 55 77 79 83
40 41 42 39 42 42 39 40 37 39 39 42 43 42 43 50 61 52 52 46 40 44 48 43 50 70 62 47 40 44 46 42 45 48 52 62 60 45 37 33 48 81 80 83 87
41 43 44 42 37 38 43 45 45 38 41 38 42 42 46 51 46 59 58 49 39 42 43 41 45 43 52 57 59 63 55 45 41 58 64 55 66 54 54 61 69 77 75 80 79
45 42 41 50 50 45 45 45 48 48 39 38 45 43 50 60 58 54 54 52 45 41 45 44 56 49 48 55 61 61 57 50 50 53 65 69 66 66 62 65 69 63 70 76 77
45 45 44 47 45 48 47 45 46 48 44 49 52 53 48 58 57 65 58 53 51 45 47 46 63 65 71 59 63 71 60 57 53 51 59 63 73 61 57 52 58 64 76 84 83
44 42 46 47 47 53 51 48 44 46 47 44 52 60 62 57 55 58 51 51 50 49 51 50 58 72 81 75 81 87 57 44 51 50 57 70 62 58 58 61 67 78 85 81 80
Wind_Direction
314 320 325 325 323 315 314 311 306 303 307 314 313 302 306 314 347 359 339 310 298 294 298 295 339 329 346 346 342 354 352 4 8 20 20 38 32 31 25 28 42 41 41 36 40
327 323 321 320 320 315 310 309 310 314 312 316 322 321 321 322 2 355 328 313 306 305 316 326 324 327 339 336 333 342 348 359 350 0 10 28 25 21 27 27 37 35 22 34 49
327 328 328 328 326 322 316 312 309 314 317 313 315 319 334 355 2 347 316 314 311 312 352 344 334 339 340 337 331 340 347 358 346 355 1 10 10 10 17 17 31 35 43 44 45
332 330 326 321 317 312 308 300 299 301 306 308 317 312 330 19 347 351 313 313 316 327 7 348 343 339 338 339 342 349 347 348 353 351 352 360 356 3 15 15 22 36 33 43 37
339 336 327 317 310 305 297 286 285 293 298 308 324 320 4 356 354 351 313 319 340 351 354 356 350 351 350 352 354 352 354 345 347 347 345 348 353 1 3 21 29 26 31 31 28
333 325 314 308 306 302 295 286 284 291 296 311 323 4 6 2 19 8 318 342 347 0 358 358 5 5 3 354 351 359 1 350 345 343 339 337 347 350 10 16 46 23 50 37 27
332 324 314 306 302 296 290 284 283 288 301 312 327 11 8 9 22 355 340 6 360 6 9 12 14 7 7 356 1 3 346 348 345 336 335 338 348 6 12 8 17 67 64 39 25
325 318 309 301 290 280 285 285 285 283 284 324 349 26 16 33 25 360 352 13 4 17 19 16 13 14 356 7 351 346 346 330 333 324 338 342 350 4 1 359 16 44 40 35 21
308 300 289 288 283 271 273 267 268 250 212 352 27 25 12 26 10 5 7 11 10 22 24 17 11 9 355 355 353 335 332 323 320 335 336 348 350 358 352 0 13 22 33 19 9
299 293 289 283 283 273 262 227 274 355 2 31 25 21 9 10 26 18 35 26 25 17 23 13 11 13 356 354 349 333 329 321 318 333 338 319 280 326 2 355 353 20 38 20 10
301 300 293 284 293 275 292 31 30 19 7 22 22 27 24 97 64 352 54 48 37 23 22 12 5 358 0 360 1 353 341 332 343 344 321 352 354 340 342 11 27 50 36 28 8
295 301 293 280 286 324 7 20 48 66 24 26 39 37 43 37 16 340 353 30 22 23 22 16 2 12 9 6 356 352 336 334 319 345 330 343 329 1 356 3 20 34 41 44 12
285 296 291 270 279 349 24 44 69 64 43 27 30 29 35 32 23 346 8 23 15 17 9 13 7 9 3 0 343 345 339 327 332 328 350 339 358 360 1 2 13 20 30 32 15
293 297 294 274 24 40 26 57 59 64 30 340 14 26 36 42 25 34 23 23 15 15 14 8 3 356 358 351 347 338 347 334 332 332 345 350 351 352 352 358 2 11 16 20 15
293 298 302 350 43 28 48 52 62 60 358 9 20 55 28 24 30 12 26 23 15 15 14 5 353 351 349 345 345 341 334 336 342 345 347 353 352 352 351 356 359 4 7 12 8
295 304 314 343 11 34 46 56 54 19 360 17 23 7 18 14 18 23 18 21 26 14 6 8 6 360 351 346 348 337 340 344 348 353 348 354 351 348 353 356 359 3 6 7 4
294 305 351 9 22 25 41 44 13 5 22 9 14 11 14 7 14 11 11 5 4 354 352 355 356 357 354 343 350 337 339 338 342 342 343 352 343 345 354 353 1 2 4 5 1
299 329 354 3 8 17 34 20 357 12 15 19 13 11 10 7 12 8 9 4 9 6 357 347 344 348 349 353 344 344 347 345 335 337 335 340 341 354 359 12 9 7 9 1 355
336 346 357 347 6 10 13 352 1 9 8 0 4 1 -0 5 4 5 2 4 4 4 355 350 349 353 355 356 354 349 345 350 341 341 337 344 345 348 358 357 2 2 357 351 348
346 350 348 349 0 5 355 350 357 7 6 4 352 358 348 353 354 353 357 0 357 3 2 357 348 356 357 356 358 351 355 345 348 339 336 339 334 335 337 322 335 344 344 343 343
344 344 344 349 355 350 344 348 353 2 2 355 353 348 350 347 350 348 350 352 357 355 355 353 353 346 352 351 346 350 350 352 347 342 336 334 336 348 334 325 330 339 342 339 340
340 335 338 346 339 345 342 346 353 355 356 354 355 350 348 347 343 344 346 347 356 355 347 352 345 340 342 348 353 355 350 344 336 335 333 330 325 340 341 333 333 334 334 335 337
335 332 341 349 332 333 342 342 348 346 348 347 345 346 347 344 338 341 343 350 350 347 347 349 344 335 341 352 354 343 340 335 333 332 319 322 328 347 345 336 332 328 329 332 334
337 327 336 347 349 341 335 333 335 346 343 346 343 343 342 340 339 336 335 341 345 343 346 345 339 332 328 328 332 327 326 321 319 320 319 306 312 317 315 318 325 328 329 332 333
336 333 337 324 328 334 334 332 330 332 341 343 338 335 334 333 334 332 333 333 336 339 340 337 328 326 318 321 321 317 316 312 303 302 307 310 312 316 320 322 323 327 328 331 332
330 329 332 327 328 328 329 328 327 329 333 330 326 328 328 323 322 324 328 329 326 333 331 333 325 328 324 326 325 320 314 313 306 303 302 303 307 314 319 327 327 328 330 330 331
331 332 327 323 323 322 323 325 327 330 329 329 324 323 321 317 320 319 320 323 321 321 322 325 324 325 322 330 328 323 329 330 329 321 319 318 320 327 329 329 329 328 328 329 330